Retour au catalogue

SL-12 DEB

LostHEO
NORAD 41689·DEBRIS·🇷🇺 Russia

Lancé Oct 26, 2007 depuis Baikonur Cosmodrome

Loading…

Prochains Passages (prochaines 24 heures)

TLE

PériméSource: Space-Track

Époque: Feb 6, 2018, 18:42 UTC

1 41689U 07052W   18037.77969986  .01888812  00000-0  14051+0 0  9998
2 41689  64.9111 257.3614 4886402  14.7148 355.6075  5.86778452 55796

Suivez SL-12 DEB en temps réel avec AllMySat

Download on the App Store